Weather History for KLYV - January, 2014

Change the Weather History Date:

Sunday, January 19, 2014

  Actual Average (KFSD) Record (KFSD)
Temperature  
Mean Temperature 28 °F 17 °F  
Max Temperature 42 °F 26 °F 55 °F (1900)
Min Temperature 15 °F 7 °F -36 °F (1970)
Degree Days  
Heating Degree Days 36 48  
Month to date heating degree days 930  
Since 1 July heating degree days 4063  
Cooling Degree Days 0 0  
Month to date cooling degree days 0  
Year to date cooling degree days 0  
Moisture  
Dew Point 25 °F    
Average Humidity 79    
Maximum Humidity 93    
Minimum Humidity 61    
Precipitation  
Precipitation 0.00 in 0.01 in 1.04 in (1988)
Month to date precipitation 0.34  
Year to date precipitation 0.34  
Snow  
Snow 0.00 in 0.30 in 10.40 in (1988)
Month to date snowfall 4.7  
Since 1 July snowfall 21.6  
Snow Depth -    
Sea Level Pressure  
Sea Level Pressure 29.69 in    
Wind  
Wind Speed 9 mph (West)    
Max Wind Speed 24 mph    
Max Gust Speed 31 mph    
Visibility 10 miles    
Events      
T = Trace of Precipitation, MM = Missing Value Source: NWS Daily Summary

Daily Weather History Graph

Daily Weather History Graph

Search for Another Location

Airport or City:

Trip Planner

Search our weather history database for the weather conditions in past years. The results will help you decide how hot, cold, wet, or windy it might be!

Date:

Astronomy

Jan. 19, 2014 Rise Set
Actual Time 7:52 AM CST 5:18 PM CST
Civil Twilight 7:21 AM CST 5:50 PM CST
Nautical Twilight 6:46 AM CST 6:25 PM CST
Astronomical Twilight 6:11 AM CST 6:59 PM CST
Moon 9:06 PM CST (1/19) 9:15 AM CST (1/19)
Length of Visible Light 10h 29m
Length of Day
9h 26m
Waning Gibbous, 89% of the Moon is Illuminated
Jan 19
Waning Gibbous
Jan 23
Last Quarter
Jan 30
New
Feb 6
First Quarter
Feb 14
Full

Hourly Weather History & Observations

Time (CST) Temp. Windchill Dew Point Humidity Pressure Visibility Wind Dir Wind Speed Gust Speed Precip Events Conditions
12:15 AM 21.2 °F 10.9 °F 19.4 °F 93% 29.84 in 10.0 mi SW 9.2 mph - N/A   Clear
12:34 AM 21.2 °F 10.9 °F 19.4 °F 93% 29.84 in 10.0 mi SSW 9.2 mph - N/A   Clear
12:54 AM 21.2 °F 13.6 °F 17.6 °F 86% 29.83 in 10.0 mi SW 5.8 mph - N/A   Clear
1:15 AM 19.4 °F 14.3 °F 17.6 °F 93% 29.82 in 10.0 mi South 3.5 mph - N/A   Clear
1:35 AM 19.4 °F 14.3 °F 17.6 °F 93% 29.81 in 10.0 mi SSW 3.5 mph - N/A   Clear
1:54 AM 17.6 °F 9.3 °F 14.0 °F 86% 29.79 in 10.0 mi South 5.8 mph - N/A   Clear
2:15 AM 19.4 °F 9.5 °F 17.6 °F 93% 29.78 in 10.0 mi South 8.1 mph - N/A   Clear
2:34 AM 15.8 °F 5.1 °F 12.2 °F 86% 29.77 in 10.0 mi SSW 8.1 mph - N/A   Clear
2:55 AM 17.6 °F 5.7 °F 15.8 °F 93% 29.75 in 10.0 mi SSW 10.4 mph - N/A   Clear
3:14 AM 19.4 °F 10.4 °F 15.8 °F 86% 29.74 in 10.0 mi SW 6.9 mph - N/A   Clear
3:35 AM 21.2 °F 10.9 °F 17.6 °F 86% 29.73 in 10.0 mi SW 9.2 mph - N/A   Clear
3:55 AM 21.2 °F 10.1 °F 17.6 °F 86% 29.72 in 10.0 mi WSW 10.4 mph - N/A   Clear
4:14 AM 21.2 °F 11.7 °F 17.6 °F 86% 29.71 in 10.0 mi WSW 8.1 mph - N/A   Clear
4:35 AM 23.0 °F 13.9 °F 19.4 °F 86% 29.71 in 10.0 mi SW 8.1 mph - N/A   Clear
4:55 AM 23.0 °F 12.4 °F 19.4 °F 86% 29.69 in 10.0 mi WSW 10.4 mph - N/A   Clear
5:14 AM 23.0 °F 13.9 °F 19.4 °F 86% 29.68 in 10.0 mi WSW 8.1 mph - N/A   Clear
5:35 AM 23.0 °F 18.4 °F 19.4 °F 86% 29.68 in 10.0 mi WSW 3.5 mph - N/A   Clear
5:55 AM 23.0 °F - 19.4 °F 86% 29.68 in 10.0 mi Calm Calm - N/A   Clear
6:15 AM 23.0 °F 18.4 °F 19.4 °F 86% 29.67 in 10.0 mi SSW 3.5 mph - N/A   Clear
6:35 AM 23.0 °F 17.0 °F 17.6 °F 80% 29.67 in 10.0 mi SSW 4.6 mph - N/A   Clear
6:55 AM 21.2 °F 16.4 °F 17.6 °F 86% 29.67 in 10.0 mi SSW 3.5 mph - N/A   Clear
7:14 AM 23.0 °F 15.8 °F 19.4 °F 86% 29.66 in 10.0 mi SSW 5.8 mph - N/A   Clear
7:35 AM 21.2 °F 12.6 °F 17.6 °F 86% 29.65 in 10.0 mi SW 6.9 mph - N/A   Clear
7:55 AM 23.0 °F 13.9 °F 19.4 °F 86% 29.65 in 10.0 mi SW 8.1 mph - N/A   Clear
8:15 AM 24.8 °F 17.9 °F 19.4 °F 80% 29.66 in 10.0 mi WSW 5.8 mph - N/A   Clear
8:35 AM 24.8 °F 16.1 °F 19.4 °F 80% 29.65 in 10.0 mi WSW 8.1 mph - N/A   Clear
8:54 AM 26.6 °F 22.6 °F 19.4 °F 74% 29.65 in 10.0 mi South 3.5 mph - N/A   Clear
9:15 AM 28.4 °F 23.3 °F 21.2 °F 74% 29.65 in 10.0 mi South 4.6 mph - N/A   Clear
9:35 AM 26.6 °F 19.1 °F 21.2 °F 80% 29.64 in 10.0 mi SW 6.9 mph - N/A   Clear
9:54 AM 28.4 °F 24.6 °F 21.2 °F 74% 29.65 in 10.0 mi SW 3.5 mph - N/A   Clear
10:15 AM 30.2 °F 25.4 °F 23.0 °F 75% 29.64 in 10.0 mi SSW 4.6 mph - N/A   Clear
10:35 AM 32.0 °F 27.5 °F 26.6 °F 80% 29.63 in 10.0 mi SW 4.6 mph - N/A   Clear
10:54 AM 33.8 °F 25.3 °F 28.4 °F 81% 29.63 in 10.0 mi West 11.5 mph - N/A   Clear
11:15 AM 35.6 °F 26.2 °F 28.4 °F 75% 29.62 in 10.0 mi West 15.0 mph - N/A   Clear
11:35 AM 37.4 °F 28.5 °F 30.2 °F 75% 29.61 in 10.0 mi West 15.0 mph - N/A   Clear
11:54 AM 37.4 °F 28.2 °F 30.2 °F 75% 29.60 in 10.0 mi West 16.1 mph - N/A   Clear
12:15 PM 39.2 °F 31.2 °F 30.2 °F 70% 29.58 in 10.0 mi West 13.8 mph - N/A   Clear
12:35 PM 41.0 °F 33.1 °F 30.2 °F 65% 29.57 in 10.0 mi West 15.0 mph 24.2 mph N/A   Clear
12:54 PM 41.0 °F 33.1 °F 30.2 °F 65% 29.56 in 10.0 mi West 15.0 mph - N/A   Clear
1:15 PM 42.8 °F 35.4 °F 30.2 °F 61% 29.56 in 10.0 mi West 15.0 mph - N/A   Clear
1:35 PM 42.8 °F 35.4 °F 30.2 °F 61% 29.56 in 10.0 mi West 15.0 mph - N/A   Clear
1:54 PM 42.8 °F 36.2 °F 30.2 °F 61% 29.56 in 10.0 mi West 12.7 mph - N/A   Clear
2:15 PM 42.8 °F 34.8 °F 30.2 °F 61% 29.56 in 10.0 mi WNW 17.3 mph - N/A   Clear
2:35 PM 42.8 °F 34.0 °F 30.2 °F 61% 29.56 in 10.0 mi WNW 20.7 mph - N/A   Clear
2:54 PM 42.8 °F 33.3 °F 30.2 °F 61% 29.57 in 10.0 mi WNW 24.2 mph 31.1 mph N/A   Clear
3:15 PM 42.8 °F 33.8 °F 30.2 °F 61% 29.59 in 10.0 mi WNW 21.9 mph 27.6 mph N/A   Clear
3:35 PM 42.8 °F 33.3 °F 30.2 °F 61% 29.60 in 10.0 mi WNW 24.2 mph 29.9 mph N/A   Clear
3:54 PM 41.0 °F 30.9 °F 32.0 °F 70% 29.61 in 10.0 mi WNW 24.2 mph - N/A   Clear
4:15 PM 41.0 °F 30.9 °F 32.0 °F 70% 29.62 in 10.0 mi WNW 24.2 mph 31.1 mph N/A   Clear
4:35 PM 41.0 °F 31.1 °F 32.0 °F 70% 29.64 in 10.0 mi WNW 23.0 mph 29.9 mph N/A   Clear
4:54 PM 39.2 °F 29.0 °F 32.0 °F 75% 29.65 in 10.0 mi WNW 21.9 mph 27.6 mph N/A   Clear
5:15 PM 39.2 °F 29.3 °F 32.0 °F 75% 29.66 in 10.0 mi WNW 20.7 mph 26.5 mph N/A   Clear
5:35 PM 39.2 °F 29.8 °F 30.2 °F 70% 29.67 in 10.0 mi NW 18.4 mph - N/A   Clear
5:54 PM 37.4 °F 28.2 °F 32.0 °F 81% 29.68 in 10.0 mi WNW 16.1 mph 19.6 mph N/A   Clear
6:15 PM 37.4 °F 28.5 °F 32.0 °F 81% 29.69 in 10.0 mi WNW 15.0 mph - N/A   Clear
6:35 PM 37.4 °F 28.5 °F 32.0 °F 81% 29.71 in 10.0 mi WNW 15.0 mph 18.4 mph N/A   Clear
6:54 PM 37.4 °F 30.3 °F 32.0 °F 81% 29.72 in 10.0 mi NW 10.4 mph - N/A   Clear
7:15 PM 37.4 °F 29.8 °F 32.0 °F 81% 29.73 in 10.0 mi NW 11.5 mph 17.3 mph N/A   Clear
7:34 PM 37.4 °F 31.4 °F 32.0 °F 81% 29.73 in 10.0 mi NW 8.1 mph - N/A   Clear
7:55 PM 37.4 °F 31.4 °F 32.0 °F 81% 29.74 in 10.0 mi NW 8.1 mph - N/A   Clear
8:14 PM 37.4 °F 32.1 °F 32.0 °F 81% 29.75 in 10.0 mi WNW 6.9 mph - N/A   Clear
8:34 PM 35.6 °F 30.7 °F 30.2 °F 81% 29.75 in 10.0 mi NW 5.8 mph - N/A   Clear
8:55 PM 35.6 °F 28.6 °F 30.2 °F 81% 29.75 in 10.0 mi WNW 9.2 mph - N/A   Clear
9:14 PM 35.6 °F 28.6 °F 30.2 °F 81% 29.75 in 10.0 mi WNW 9.2 mph - N/A   Clear
9:34 PM 35.6 °F 28.6 °F 30.2 °F 81% 29.76 in 10.0 mi West 9.2 mph - N/A   Clear
9:55 PM 33.8 °F 27.0 °F 30.2 °F 87% 29.76 in 10.0 mi West 8.1 mph - N/A   Clear
10:14 PM 35.6 °F 28.6 °F 30.2 °F 81% 29.77 in 10.0 mi WNW 9.2 mph - N/A   Clear
10:34 PM 33.8 °F 27.0 °F 30.2 °F 87% 29.77 in 10.0 mi NW 8.1 mph - N/A   Clear
10:55 PM 35.6 °F 29.9 °F 30.2 °F 81% 29.77 in 10.0 mi NNW 6.9 mph - N/A   Clear
11:14 PM 33.8 °F 27.7 °F 30.2 °F 87% 29.78 in 10.0 mi NNW 6.9 mph - N/A   Clear
11:35 PM 33.8 °F 29.6 °F 28.4 °F 81% 29.78 in 10.0 mi NW 4.6 mph - N/A   Clear
11:55 PM 32.0 °F 26.4 °F 28.4 °F 87% 29.78 in 10.0 mi NW 5.8 mph - N/A   Clear